Regional Weather Roundup
Issued by NWS

Home | Current Version | Previous Version | Graphics & Text | Print | Product List | Glossary On
Versions: 1 2 3 4 5 6 7 8 9 10 11 12 13 14 15 16 17 18 19 20 21 22 23 24 25 26 27 28 29 30 31 32 33 34 35 36 37 38 39 40 41 42 43 44 45 46 47 48 49 50
218
ASUS43 KMKX 262021
RWRWI

WISCONSIN REGIONAL WEATHER ROUNDUP
NATIONAL WEATHER SERVICE MILWAUKEE/SULLIVAN WI
300 PM CDT MON JUN 26 2017

NOTE: "FAIR" INDICATES FEW OR NO CLOUDS BELOW 12,000 FEET WITH NO
SIGNIFICANT WEATHER AND/OR OBSTRUCTIONS TO VISIBILITY.

WIZ001-002-006>008-014>016-023>028-262100-
NORTHWEST WISCONSIN

CITY           SKY/WX    TMP DP  RH WIND       PRES   REMARKS
SUPERIOR ARPT  NOT AVBL
ASHLAND        MOSUNNY   67  47  48 NW12      30.06F
HAYWARD        LGT RAIN  58  50  75 SW6       30.10S
SIREN          MOSUNNY   62  44  51 CALM      30.12F
CUMBERLAND     LGT RAIN  59  46  63 NW10      30.12S
RICE LAKE      CLOUDY    64  43  47 NW9       30.13S
CHETEK         PTSUNNY   66  47  51 N6        30.10F
LADYSMITH      MOSUNNY   66  45  46 NW9       30.11F
EAU CLAIRE     MOSUNNY   68  41  37 N8G21     30.10F
MENOMONIE      PTSUNNY   69  45  42 W12       30.11F
NEW RICHMOND   PTSUNNY   69  37  31 N9G17     30.13F
OSCEOLA        PTSUNNY   67  42  39 NW3       30.15F
$$

WIZ003>005-009-010-017-018-262100-
NORTH CENTRAL WISCONSIN

CITY           SKY/WX    TMP DP  RH WIND       PRES   REMARKS
MANITOWISH WTR PTSUNNY   62  44  53 NW7       30.06F
ARBOR VITAE    PTSUNNY   62  47  58 N9        30.06F
WOODRUFF       PTSUNNY   62  47  58 N9        30.06F
RHINELANDER    PTSUNNY   59  44  57 N8        30.08F
EAGLE RIVER    PTSUNNY   57  43  59 N6        30.06F
LAND O LAKES   PTSUNNY   60  44  54 NW7       30.07F
PHILLIPS       MOSUNNY   63  45  52 N9G17     30.08F
TOMAHAWK       NOT AVBL
MEDFORD        CLOUDY    59  43  56 N8        30.09F
MERRILL        MOSUNNY   62  44  53 N13G18    30.08F
$$

WIZ029-030-035-036-043>047-262100-
CENTRAL WISCONSIN

CITY           SKY/WX    TMP DP  RH WIND       PRES   REMARKS
WAUSAU         CLOUDY    59  43  55 N14G22    30.06S
MOSINEE        PTSUNNY   59  46  63 N16G22    30.09F
MARSHFIELD     CLOUDY    60  43  53 N10       30.09F
STEVENS POINT  CLOUDY    58  43  57 NW10G20   30.08F
WAUPACA        PTSUNNY   64  46  52 NW13G22   30.06S
WAUTOMA        CLOUDY    59  45  59 NW12G28   30.08S
WISC RAPIDS    CLOUDY    63  45  51 N16G23    30.10S
CAMP DOUGLAS   PTSUNNY   61  48  63 NW12      30.10S
$$

WIZ011>013-019>022-031-037>040-048>050-262100-
NORTHEAST WISCONSIN

CITY           SKY/WX    TMP DP  RH WIND       PRES   REMARKS
ANTIGO         CLOUDY    54  48  79 NW15      30.07R
SHAWANO        LGT RAIN  58  52  79 W10G16    30.03R
OCONTO         PTSUNNY   62  51  65 NW9       30.00F
STURGEON BAY     N/A     57  51  80 NW10        N/A
GREEN BAY      LGT RAIN  58  53  84 NW9       30.02F
MANITOWOC      CLOUDY    59  46  62 W14G20    30.03S
APPLETON       PTSUNNY   57  45  62 W16G22    30.03S
CLINTONVILLE   CLOUDY    59  52  77 NW9G16    30.04R
OSHKOSH        PTSUNNY   61  45  55 W17G24    30.04S
$$

WIZ032>034-041-042-053>061-262100-
SOUTHWEST WISCONSIN

CITY           SKY/WX    TMP DP  RH WIND       PRES   REMARKS
LA CROSSE      PTSUNNY   71  45  39 NW13      30.11F
SPARTA         PTSUNNY   65  46  51 NW9       30.12S
VIROQUA        PTSUNNY   64  46  51 NW13G21   30.13S
BOSCOBEL       MOSUNNY   69  44  40 NW9G21    30.12F
PRAIRIE DU CHI MOSUNNY   67  40  36 NW13      30.12S
PLATTEVILLE    PTSUNNY   68  43  40 NW13G20   30.12S
$$

WIZ056-057-062-063-064-067-068-262100-
SOUTH CENTRAL WISCONSIN

CITY           SKY/WX    TMP DP  RH WIND       PRES   REMARKS
REEDSBURG      CLOUDY    62  46  55 NW14      30.10F
BARABOO/DELLS  CLOUDY    61  44  54 NW10G16   30.10S
LONE ROCK      CLOUDY    65  43  44 NW10G22   30.11S
MINERAL POINT  MOSUNNY   68  41  37 NW15G21   30.10F
MADISON        PTSUNNY   62  44  51 NW15G26   30.08S
MIDDLETON      CLOUDY    65  45  49 NW21G28   30.10S
WATERTOWN      NOT AVBL
MONROE         MOSUNNY   66  39  37 W14G25    30.09S
JANESVILLE     PTSUNNY   70  43  37 NW14G24   30.07S
$$

WIZ051-052-058>065-066-070>072-262100-
SOUTHEAST WISCONSIN

CITY           SKY/WX    TMP DP  RH WIND       PRES   REMARKS
MILWAUKEE      PTSUNNY   64  45  49 NW17G26   30.04S
WAUKESHA       PTSUNNY   57  45  62 NW22      30.08R
MILWAUKEE/TIMM CLOUDY    63  41  45 W22G29    30.06S
RACINE         CLOUDY    65  40  39 W16G29    30.06S
KENOSHA        PTSUNNY   65  43  44 NW15G28   30.05S
FOND DU LAC    CLOUDY    61  45  55 NW17      30.05S
SHEBOYGAN      PTSUNNY   60  49  66 W12G22    30.04S
WEST BEND      CLOUDY    61  43  51 W18G24    30.05S
JUNEAU         CLOUDY    59  44  57 NW9G17    30.08S
$$

LSZ147-162-262100-
LAKE SUPERIOR

STATION/POSITION TIME  TEMP    WIND        PRES    WAVE
                       AIR SEA DIR/SP/G            HT/PER
                 (UTC) (F)     (DEG/KT/KT) (MB)    (FT/S)
W MID LAKE BUOY  1950   44 39  230/  8/ 10 1017.5F   1/ 4
DEVILS ISLAND    2000   56     230/ 15/ 16 1017.6F
SAXON HARBOR     1940   65      60/  2/  4 1017.9F
$$

LMZ867-665-643>646-262100-
LAKE MICHIGAN

STATION/POSITION TIME  TEMP    WIND        PRES    WAVE
                       AIR SEA DIR/SP/G            HT/PER
                 (UTC) (F)     (DEG/KT/KT) (MB)    (FT/S)
CHAMBERS ISLAND  1940   55     340/  9/ 17 1015.6R
S GREEN BAY BUOY 2000   58     330/  8/ 12 1015.9
N MID LAKE BUOY  1950   56 56  330/ 16/ 17 1015.1F   1/ 3
NORTHPORT PIER   1940   58     350/ 15/ 17 1015.2S
KEWAUNEE LAKESHO 2000   60     310/  9/ 13 1015.5
SHEBOYGAN LAKESH 2000   59     280/ 17/ 22 1016.7F
PORT WASHINGTON  1930   63     290/ 13/ 23 1017.9S
ATWATER BUOY     1909   60 56  280/ 16/ 21 1017.4S
MILWAUKEE LAKESH 2000   62     320/ 14/ 18   N/A
S MID LAKE BUOY  1950   61 62  350/ 10/ 12 1017.3F   1/ 4
KENOSHA   LAKESH 2000   65     300/ 19/ 23 1016.9
$$

TC  - TEMPERATURE IN CELSIUS
VSB - VISIBILITY IN STATUTE MILES
WCI - WIND CHILL INDEX
HX  - HEAT INDEX





USA.gov is the U.S. government's official web portal to all federal, state and local government web resources and services.